www.pogodaiklimat.ru

Погода и климат >> Архив погоды >> Россия >> Волгоградская область >> Волгоград город


ПОГОДА в Волгограде город

  • Прогноз погоды в Волгограде город
  • Монитор погоды в Волгограде город
  • Климат города

АРХИВ ПОГОДЫ в Волгограде город

Время (UTC), дата Ветер
(напр.,м/с)
 
Видим.   Явления Облачность Т
(С)
Тd
(С)
f
(%)
Тe
(С)
Тes
(С)
Комфортность P
(гПа)
Po
(гПа)
Тmin
(С)
Tmax
(С)
R
(мм)
R24
(мм)
S
(см)
09 18.04 ЮВ 2 10 км 10/8 1000 м
[Cu med, cong Ac trans]
+17.7 +7.9 53 +18 +19 1012.2 998.7
12 18.04 Ю 3 10 км 10/10 1000 м
[Sc diur, vesp]
+18.3 +9.1 55 +19 +19 1010.7 997.2
15 18.04 Ю 2 10 км 10/0
[Ci]
+19.9 +7.8 46 +21 +22 комфорт 1009.9 996.5 +21.0
18 18.04 С 2 10 км 3/0
[Ci fib]
+11.9 +6.7 70 +11 +11 1010.8 997.0
21 18.04 В 2 10 км ясно +9.6 +6.0 78 +8 +8 1009.9 995.9
00 19.04 СВ 2 10 км ясно +7.7 +5.1 84 +6 +6 1009.7 995.7
03 19.04 В 2 4000 м дымка 10/10 200 м
[St]
+7.8 +6.0 88 +6 +6 1008.8 994.8 +6.9
06 19.04 В 2 10 км 10/10 200 м
[St]
+8.8 +6.2 84 +7 +7 1008.2 994.2
09 19.04 Ю 2 10 км 10/6 600 м
[Cb cap Ac As]
+13.5 +7.2 66 +13 +15 1010.2 996.5
12 19.04 С 1
{10}
10 км слабый ливневой дождь 10/8 300 м
[Cb cap Ac As]
+8.6 +5.9 83 +8 +9 1012.0 997.9
15 19.04 ЮЗ 1 10 км {ливн. осадки} 10/3 600 м
[Sc diur, vesp Ac As]
+11.0 +4.7 65 +11 +11 1012.0 998.1 +13.6 0.3
18 19.04 Ю 2
{14}
10 км {ливн. осадки} 4/0
[Ac trans]
+5.9 +0.4 68 +4 +4 1012.6 998.4
21 19.04 ЮЗ 2 10 км 10/10 300 м
[Sc]
+5.4 +1.3 75 +3 +3 1012.6 998.4
00 20.04 СЗ 4 10 км 10/10 300 м
[Sc]
+5.7 +2.8 82 +2 +2 1013.0 998.8
03 20.04 СЗ 5
{12}
10 км 10/10 300 м
[Sc]
+1.5 -1.9 78 -4 -4 1015.8 1001.4 +1.4 0.3
06 20.04 СЗ 6-11
{12}
10 км 10/10 600 м
[Sc]
+1.7 -3.4 69 -4 -4 1017.9 1003.5 +1.2
09 20.04 СЗ 3
{13}
10 км 6/6 1000 м
[Cu hum]
+5.6 -3.2 53 +3 +8 1019.5 1005.2
12 20.04 СЗ 4 10 км ясно +8.5 -4.2 40 +6 +12 1019.4 1005.3
15 20.04 С 4 10 км ясно +7.4 -4.3 43 +5 +5 1020.2 1006.0 +9.0
18 20.04 С 3 10 км ясно +2.5 -5.1 57 -1 -1 1022.1 1007.6
21 20.04 С 2 10 км 6/0
[Cc]
+0.4 -5.9 63 -3 -3 1022.5 1007.9
00 21.04 СВ 2 10 км 8/0
[Ac cast Cc]
+0.5 -5.4 65 -3 -3 1021.4 1006.9
03 21.04 СВ 2 10 км 9/0
[Ac cast Cc]
+0.1 -6.2 63 -3 -3 1021.8 1007.2 -0.2
06 21.04 В 3 10 км 10/6 1000 м
[Sc Ac lent]
+3.5 -5.7 51 0 +1 1020.6 1006.2
09 21.04 ЮВ 2 10 км 10/8 1000 м
[Sc Ac lent]
+5.7 -4.8 47 +4 +5 1020.0 1005.7
12 21.04 В 2 10 км 10/8 1000 м
[Sc Ac lent]
+7.4 -3.4 46 +6 +6 1016.8 1002.7
15 21.04 В 1 10 км 10/8 1000 м
[Sc Ac lent]
+7.1 -2.8 49 +7 +7 1014.1 1000.0 +7.5
18 21.04 В 2 10 км слабый ливневой дождь 10/10 600 м
[Cb cap]
+6.4 -1.7 56 +5 +5 1012.8 998.6
21 21.04 Ю 1 10 км слабый ливневой дождь 10/10 200 м
[Cb cap]
+3.9 +2.0 87 +2 +2 1010.6 996.4
00 22.04 ЮЗ 2
{11}
10 км слабый ливневой дождь 10/10 200 м
[Cb cap]
+3.4 +1.5 87 0 0 1009.2 995.0
03 22.04 Ю 1 10 км 10/0
[]
+3.9 +2.0 87 +2 +3 1007.6 993.4 +3.2 13
06 22.04 Ю 3
{10}
10 км {ливн. осадки} 8/8 200 м
[Cb cap Ci fib]
+6.1 +1.8 74 +3 +4 1005.2 991.1
09 22.04 ЮЗ 4-11
{15}
10 км слабый ливневой дождь 9/8 300 м
[Cb cap Ci fib]
+6.7 +2.4 74 +3 +5 1004.2 990.2
12 22.04 С 3-11
{12}
10 км {ливн. осадки} 9/9 300 м
[Cb cap]
+8.7 +3.1 68 +6 +7 1005.5 991.5
15 22.04 В 2
{14}
10 км {ливн. осадки} 8/8 600 м
[Cb cap Ci fib]
+7.8 +1.2 63 +6 +6 1008.4 994.4 +9.4 2
18 22.04 ЮЗ 3 10 км {ливн. осадки} 10/10 600 м
[Sc]
+5.9 +1.2 72 +3 +3 1011.1 996.9
21 22.04 ЮЗ 4
{11}
10 км 4/0
[Ac As]
+6.9 +2.2 72 +4 +4 1011.2 997.1
00 23.04 ЮЗ 3
{11}
10 км 3/0
[Ac As]
+5.7 +1.7 75 +3 +3 1011.1 996.9
03 23.04 ЮЗ 5-10
{11}
10 км 5/0
[Ac As Ci fib]
+4.8 +2.0 82 0 0 1011.9 997.7 +4.3
06 23.04 ЮЗ 3
{11}
10 км 10/10 300 м
[Sc]
+7.4 +3.7 77 +5 +5 1012.2 998.1
09 23.04 ЮЗ 2 10 км 10/8 1000 м
[Sc diur, vesp Ac und]
+11.6 +2.5 54 +11 +12 1011.2 997.4
12 23.04 Ю 2 10 км слабый ливневой дождь 10/10 300 м
[Cb cap]
+8.0 +4.1 76 +6 +6 1009.3 995.3
15 23.04 В 3 10 км в посл. час ливневой дождь 10/10 200 м
[Cb cap]
+6.7 +4.9 88 +4 +4 1005.8 991.8 +11.9 3
18 23.04 СВ 3 10 км {ливн. осадки} 10/0
[As op]
+6.8 +3.9 82 +4 +4 1005.9 991.9
21 23.04 СВ 2 10 км слабый ливневой дождь 10/10 300 м
[Cb cap]
+6.8 +3.5 79 +5 +5 1002.5 988.5
00 24.04 В 1 10 км в посл. час ливневой дождь 10/10 200 м
[Cb cap]
+6.0 +4.9 93 +5 +5 999.0 985.0
03 24.04 ЮЗ 2
{13}
10 км 10/8 300 м
[Sc diur, vesp Ac trans]
+5.9 +3.7 86 +3 +4 996.1 982.2 +5.9 5
06 24.04 СЗ 3
{11}
10 км {ливн. осадки} 10/10 300 м
[Cb cap]
+7.8 +5.5 85 +5 +5 997.0 983.2 +5.6
09 24.04 СЗ 5-10
{14}
10 км {ливн. осадки} 10/8 600 м
[Sc diur, vesp Ac lent]
+7.7 +3.2 73 +4 +4 1003.0 989.0
12 24.04 СЗ 7-14
{15}
10 км 1/1 1000 м
[Cu hum]
+11.1 +2.2 54 +8 +10 1006.3 992.5
15 24.04 ЮЗ 4
{14}
10 км 3/3 1000 м
[Cu hum]
+11.3 +1.5 51 +9 +10 1008.9 995.1 +12.4 0.5
18 24.04 Ю 1 10 км 8/0
[Ac lent]
+8.9 +3.8 70 +8 +8 1010.7 996.8
21 24.04 Ю 3 10 км 8/0
[Ac lent]
+5.9 +0.9 70 +3 +3 1010.9 996.7
00 25.04 Ю 2
{10}
10 км слабый ливневой дождь 10/10 300 м
[Cb cap]
+4.1 +1.3 82 +1 +1 1010.4 996.2
03 25.04 ЮЗ 1 10 км {ливн. осадки} 10/10 300 м
[Cb cap]
+4.6 +2.6 87 +3 +3 1012.4 998.2 +3.8

 

Местоположение метеостанции Волгоград город (Волгоградская область, Россия): широта 48.67 долгота 44.45 высота над уровнем моря 116 м.

В архиве по умолчанию представлена погода в Волгограде город за последнюю неделю. Архивные данные за месяц целиком и за предыдущие месяцы, начиная с января 2011 года, Вы можете получить, выбрав интересующий диапазон дат из раскрывающегося списка и нажав кнопку "Ввод!".

Внимание! Время в таблицах - всемирное. Для получения местного времени необходимо прибавить поправку, которая в Волгограде город равна 3 ч.

Смотрите также архив погоды в соседних городах и на ближайших метеорологических станциях:

Погода в Волгограде (Волгоградская область, Россия) (14 км)
Погода в Калаче-на-Дону (Волгоградская область, Россия) (71 км)
Погода в Иловле (Волгоградская область, Россия) (77 км)
Погода в Малых Дербетах (Калмыкия, Россия) (84 км)
Погода в Нижнем Чире (Волгоградская область, Россия) (105 км)
Погода в Ольховке (Волгоградская область, Россия) (134 км)
Погода в Фролове (Волгоградская область, Россия) (138 км)
Погода в Черный Яр (Астраханская область, Россия) (140 км)
Погода в Кетченерах (Калмыкия, Россия) (150 км)
Погода в Котельниково (Волгоградская область, Россия) (151 км)

Пояснения к столбцам:

Ветер - указаны скорость ветра в м/с - средняя за 10 мин, порывы в срок и между сроками (в фигурных скобках) и направление, откуда дует ветер: С - северный, СВ - северо-восточный, В - восточный, ЮВ - юго-восточный, Ю - южный, ЮЗ - юго-западный, З - западный, СЗ - северо-западный.
Видимость - горизонтальная дальность видимости в метрах или километрах. При видимости от 1 до 10 км при отсутствии осадков обычно наблюдается дымка, при ухудшении видимости до 1 км и менее - туман. В сухую погоду видимость может ухудшаться дымом, пылью или мглою.
Явления - указаны атмосферные явления, наблюдавшиеся в срок или в последний час перед сроком; фигурными скобками обозначены явления, наблюдавшиеся между сроками (за 1-3 часа до срока); квадратными скобками обозначены град или гололедные отложения с указанием их диаметра в мм.
Облачность - указаны через наклонную черту общая и нижняя облачность в баллах и высота нижней границы облаков в метрах; квадратными скобками обозначены формы облаков: Ci - перистые, Cs - перисто-слоистые, Cc - перисто-кучевые, Ac - высококучевые, As - высокослоистые, Sc - слоисто-кучевые, Ns - слоисто-дождевые, Cu - кучевые, Cb - кучево-дождевые. Подробнее классификацию облаков см. в Атласе облаков (PDF).
T - Температура воздуха - температура, измеренная на высоте 2 м над землей.
Td - Температура точки росы - температура, при понижении до которой содержащийся в воздухе водяной пар достигнет насыщения.
f - Относительная влажность воздуха - влажноcть воздуха, измеренная на высоте 2 м над землей.
Te - Эффективная температура - температура, которую ощущает одетый по сезону человек в тени. Характеристика душности погоды. При расчете учитывается влияние влажности воздуха и скорости ветра на теплоощущения человека.
Tes - Эффективная температура на солнце - температура, которую ощущает человек, с поправкой на солнечный нагрев. Характеристика знойности погоды. Зависит от высоты солнца над горизонтом, облачности и скорости ветра. Ночью, в пасмурную погоду, а также при ветре 12 м/с и более поправка равна нулю.
P - Атмосферное давление - приведенное к уровню моря атмосферное давление.
Po - Атмосферное давление - измеренное на уровне метеостанции атмосферное давление.
Tmin - Минимальная температура - минимум температуры воздуха на высоте 2 м над землей.
Tmax - Максимальная температура - максимум температуры воздуха на высоте 2 м над землей.
R - Количество осадков - Количество выпавших осадков за период времени, мм. При наведении курсора мыши на число - период времени, за который выпало указанное количество осадков.
R24 - Количество осадков - Количество выпавших осадков за 24 часа, мм.
S - Снежный покров - Высота снежного покрова, см. При наведении курсора мыши на число - состояние снежного покрова и степень покрытия местности в баллах.